Flag for Japan Weather past 2 weeks in Fukuoka, Japan

Now
86 °F

Partly sunny.


Feels Like: 92 °F
Forecast: 80 / 86 °F
Wind: 7 mph from Southeast

Location: Fukuoka Airport

Current Time: Jul 31, 2014 at 9:41:48 AM

Latest Report: Jul 31, 2014 at 9:00 AM


Visibility: N/A

Pressure: 29.83 "Hg

Humidity: 62%

Dew point: 72 °F

Location of FukuokaLocation

Historic Weather in Fukuoka — Graph

°F

Fukuoka temperature yesterday

Maximum temperature yesterday: 95 °F (at 12:00 PM)
Minimum temperature yesterday: 77 °F (at 5:30 PM)
Average temperature yesterday: 84 °F

Past Weeks' High & Low Weather Summary

 TemperatureHumidityPressure
High95 °F (Jul 26, 2:30 PM)94% (Jul 16, 12:30 PM)29.95 "Hg (Jul 16, 12:30 PM)
Low72 °F (Jul 28, 4:00 AM)44% (Jul 29, 11:30 AM)29.68 "Hg (Jul 23, 3:00 PM)
Average83 °F73%29.82 "Hg
* Reported Jul 16 8:00 AM — Jul 31 8:30 AM, Fukuoka, Weather by CustomWeather, © 2014

Note: Actual official high and low records may vary slightly from our data, if they occured in-between our weather recording intervals... More about our weather records

Advertising

Fukuoka weather history for previous 24 hours

 ConditionsComfort  
Time TempWeatherWind HumidityBarometerVisibility
8:30 AM
Jul 31
84 °FBroken clouds.7 mph62%29.86 "HgN/A
8:00 AM84 °FBroken clouds.10 mph74%29.86 "HgN/A
7:30 AM82 °FScattered showers. Broken clouds.7 mph74%29.86 "HgN/A
7:00 AM81 °FPartly sunny.3 mph79%29.86 "HgN/A
6:30 AM79 °FPartly sunny.1 mph84%29.83 "HgN/A
6:00 AM79 °FPartly sunny.3 mph84%29.83 "HgN/A
5:30 AM77 °FPassing clouds.5 mph83%29.80 "HgN/A
5:00 AM75 °FPassing clouds.2 mph94%29.80 "HgN/A
4:30 AM79 °FPassing clouds.2 mph84%29.80 "HgN/A
4:00 AM79 °FPassing clouds.2 mph84%29.80 "HgN/A
3:30 AM79 °FPassing clouds.5 mph79%29.80 "HgN/A
2:30 AM79 °FPassing clouds.9 mph79%29.80 "HgN/A
2:00 AM79 °FPassing clouds.6 mph84%29.80 "HgN/A
1:30 AM79 °FPassing clouds.9 mph84%29.83 "HgN/A
1:00 AM77 °FPassing clouds.5 mph89%29.83 "HgN/A
12:30 AM79 °FClear.6 mph84%29.83 "Hg10 mi
12:00 AM79 °FPassing clouds.3 mph89%29.83 "HgN/A
11:30 PM
Jul 30
79 °FClear.3 mph84%29.83 "Hg10 mi
11:00 PM79 °FClear.6 mph84%29.83 "Hg10 mi
10:30 PM79 °FPassing clouds.5 mph84%29.83 "HgN/A
10:00 PM81 °FPassing clouds.3 mph79%29.83 "HgN/A
9:30 PM81 °FPassing clouds.5 mph79%29.83 "HgN/A
9:00 PM81 °FPartly cloudy.6 mph79%29.80 "HgN/A
8:30 PM79 °FPartly cloudy.2 mph79%29.83 "HgN/A
8:00 PM79 °FPartly cloudy.7 mph79%29.83 "HgN/A
7:30 PM81 °FPartly cloudy.6 mph74%29.83 "HgN/A
7:00 PM81 °FBroken clouds.8 mph74%29.83 "HgN/A
6:30 PM81 °FBroken clouds.10 mph74%29.83 "HgN/A
6:00 PM79 °FThunderstorms. Partly sunny.5 mph84%29.83 "HgN/A
5:30 PM77 °FThunderstorms. Partly sunny.8 mph83%29.80 "HgN/A
5:00 PM79 °FStrong thunderstorms. Broken clouds.23 mph84%29.83 "HgN/A
4:45 PM86 °FThunderstorms. Partly sunny.12 mph79%29.80 "HgN/A
4:30 PM86 °FThunderstorms. Partly sunny.7 mph79%29.80 "HgN/A
4:00 PM84 °FStrong thunderstorms. Broken clouds.9 mph79%29.80 "Hg5 mi
3:48 PM84 °FStrong thunderstorms. Broken clouds.13 mph79%29.80 "HgN/A
3:30 PM88 °FThunderstorms. Broken clouds.13 mph70%29.80 "HgN/A
3:00 PM93 °FThunderstorms. Partly sunny.9 mph56%29.77 "HgN/A
2:30 PM93 °FPartly sunny.12 mph56%29.77 "HgN/A
2:00 PM95 °FScattered clouds.6 mph53%29.77 "HgN/A
1:30 PM95 °FPassing clouds.9 mph53%29.80 "HgN/A
1:00 PM95 °FPassing clouds.5 mph53%29.80 "HgN/A
12:30 PM93 °FScattered clouds.6 mph56%29.80 "HgN/A
12:00 PM95 °FPassing clouds.6 mph50%29.83 "HgN/A
11:30 AM93 °FPassing clouds.8 mph53%29.83 "HgN/A
11:00 AM91 °FPassing clouds.7 mph52%29.83 "HgN/A
10:30 AM91 °FPassing clouds.3 mph52%29.86 "HgN/A
10:00 AM90 °FPassing clouds.3 mph52%29.86 "HgN/A
9:30 AM90 °FPassing clouds.1 mph55%29.86 "HgN/A
9:00 AM88 °FPassing clouds.2 mph59%29.86 "HgN/A
Weather by CustomWeather, © 2014

See weather overviewHow to use our weather pages